Barcelona, Spain

1:37 PM CEST on October 19, 2018 (GMT +0200)
El Prat

Weather History for LEBL - February, 2018

Change the Weather History Date:

Wednesday, February 21, 2018

  Actual Average Record
Temperature  
Mean Temperature 50 °F -  
Max Temperature 58 °F 58 °F 64 °F (1999)
Min Temperature 41 °F 44 °F 35 °F (2009)
Degree Days  
Heating Degree Days 15    
Moisture  
Dew Point 39 °F    
Average Humidity 64    
Maximum Humidity 93    
Minimum Humidity 29    
Precipitation  
Precipitation 0.00 in 0.06 in - ()
Sea Level Pressure  
Sea Level Pressure 29.75 in    
Wind  
Wind Speed 9 mph ()    
Max Wind Speed 20 mph    
Max Gust Speed -    
Visibility 8.8 miles    
Events Rain    
Averages and records for this station are not official NWS values.
T = Trace of Precipitation, MM = Missing Value Source: Averaged Metar Reports

Daily Weather History Graph

Daily Weather History Graph

Search for Another Location

Airport or City:

Astronomy

Feb. 21, 2018 Rise Set
Actual Time 7:38 AM CET 6:32 PM CET
Civil Twilight 7:10 AM CET 7:00 PM CET
Nautical Twilight 6:38 AM CET 7:32 PM CET
Astronomical Twilight 6:06 AM CET 8:04 PM CET
Moon 10:44 AM CET (2/21) No Moon Set
Length of Visible Light 11h 50m
Length of Day
10h 54m
Waxing Crescent, 30% of the Moon is Illuminated
Feb 21
Waxing Crescent
Feb 23
First Quarter
Mar 2
Full
Mar 9
Last Quarter
Mar 17
New

Hourly Weather History & Observations

Time (CET) Temp. Windchill Dew Point Humidity Pressure Visibility Wind Dir Wind Speed Gust Speed Precip Events Conditions
12:00 AM 49 °F - 46 °F 87% 29.83 in 5 mi NNE 6.9 mph - -   Mist
12:00 AM 48.2 °F - 46.4 °F 93% 29.83 in 5.0 mi NNW 6.9 mph - N/A   Partly Cloudy
12:30 AM 48.2 °F - 44.6 °F 87% 29.80 in 5.0 mi Variable 1.2 mph - N/A   Partly Cloudy
1:00 AM 49 °F - 46 °F 85% 29.82 in 5 mi North 6.9 mph - -   Mist
1:00 AM 48.2 °F - 44.6 °F 87% 29.80 in 5.0 mi NW 6.9 mph - N/A   Partly Cloudy
1:30 AM 48.2 °F - 46.4 °F 93% 29.80 in 4.3 mi NNW 6.9 mph - N/A   Partly Cloudy
2:00 AM 48 °F - 46 °F 89% 29.81 in 4 mi North 8.1 mph - -   Mist
2:00 AM 48.2 °F - 44.6 °F 87% 29.80 in 3.7 mi NW 9.2 mph - N/A   Partly Cloudy
2:30 AM 48.2 °F - 44.6 °F 87% 29.77 in 3.7 mi NNW 9.2 mph - N/A   Partly Cloudy
3:00 AM 49 °F - 46 °F 87% 29.78 in 4 mi North 9.2 mph - -   Mist
3:00 AM 48.2 °F - 46.4 °F 93% 29.77 in 3.7 mi NW 11.5 mph - N/A   Mostly Cloudy
3:30 AM 48.2 °F - 46.4 °F 93% 29.74 in 3.7 mi NNW 9.2 mph - N/A   Scattered Clouds
4:00 AM 49 °F - 45 °F 81% 29.76 in 6 mi North 11.5 mph - -   Mist
4:00 AM 48.2 °F - 44.6 °F 87% 29.74 in 5.6 mi NNW 10.4 mph - N/A   Scattered Clouds
4:30 AM 48.2 °F - 42.8 °F 82% 29.74 in 6.2 mi NW 11.5 mph - N/A   Partly Cloudy
5:00 AM 49 °F - 41 °F 65% 29.75 in 16 mi North 12.7 mph - -   Clear
5:00 AM 48.2 °F - 39.2 °F 71% 29.74 in 6.2 mi NNW 12.7 mph - N/A   Scattered Clouds
5:30 AM 48.2 °F - 39.2 °F 71% 29.74 in 6.2 mi NNW 12.7 mph - N/A   Scattered Clouds
6:00 AM 49 °F - 40 °F 61% 29.74 in 19 mi North 10.4 mph - -  
6:00 AM 48.2 °F - 39.2 °F 71% 29.71 in 6.2 mi NNW 12.7 mph - N/A   Mostly Cloudy
6:30 AM 48.2 °F - 39.2 °F 71% 29.71 in 6.2 mi NNW 13.8 mph - N/A   Scattered Clouds
7:00 AM 48 °F - 39 °F 61% 29.73 in 19 mi North 8.1 mph - -   Scattered Clouds
7:00 AM 48.2 °F - 37.4 °F 66% 29.71 in 6.2 mi NNW 10.4 mph - N/A   Partly Cloudy
7:30 AM 46.4 °F 43.5 °F 37.4 °F 71% 29.71 in 6.2 mi North 5.8 mph - N/A   Scattered Clouds
8:00 AM 48 °F - 39 °F 61% 29.74 in 19 mi NNE 10.4 mph - -  
8:00 AM 48.2 °F - 37.4 °F 66% 29.74 in 6.2 mi North 10.4 mph - N/A   Mostly Cloudy
8:30 AM 48.2 °F - 37.4 °F 66% 29.74 in 6.2 mi NW 8.1 mph - N/A   Mostly Cloudy
9:00 AM 48 °F - 39 °F 63% 29.74 in 16 mi North 9.2 mph - -  
9:00 AM 46.4 °F 41.9 °F 39.2 °F 76% 29.74 in 6.2 mi NW 9.2 mph - N/A   Mostly Cloudy
9:30 AM 48.2 °F - 39.2 °F 71% 29.74 in 6.2 mi NW 8.1 mph - N/A   Mostly Cloudy
10:00 AM 49 °F - 41 °F 66% 29.74 in 12 mi North 6.9 mph - -   Scattered Clouds
10:00 AM 48.2 °F - 39.2 °F 71% 29.74 in 6.2 mi NW 8.1 mph - N/A   Mostly Cloudy
10:30 AM 50.0 °F - 41.0 °F 71% 29.74 in 6.2 mi NNW 4.6 mph - N/A   Mostly Cloudy
11:00 AM 51 °F - 42 °F 63% 29.75 in 11 mi North 5.8 mph - -  
11:00 AM 50.0 °F - 41.0 °F 71% 29.74 in 6.2 mi NW 4.6 mph - N/A   Mostly Cloudy
11:30 AM 51.8 °F - 41.0 °F 67% 29.74 in 6.2 mi NW 5.8 mph - N/A   Mostly Cloudy
12:00 PM 53 °F - 41 °F 52% 29.76 in 19 mi North 9.2 mph - -  
12:00 PM 51.8 °F - 41.0 °F 67% 29.74 in 6.2 mi NNW 8.1 mph - N/A   Mostly Cloudy
12:30 PM 50.0 °F - 42.8 °F 76% 29.74 in 6.2 mi NNW 6.9 mph - N/A Rain Light Rain
1:00 PM 53 °F - 44 °F 64% 29.75 in 14 mi North 4.6 mph - - Rain Light Rain
1:00 PM 51.8 °F - 44.6 °F 76% 29.74 in 6.2 mi NNW 6.9 mph - N/A   Scattered Clouds
1:30 PM 55.4 °F - 42.8 °F 63% 29.71 in 6.2 mi WNW 5.8 mph - N/A   Partly Cloudy
2:00 PM 58 °F - 45 °F 52% 29.73 in 19 mi West 11.5 mph - -  
2:00 PM 57.2 °F - 44.6 °F 63% 29.71 in 6.2 mi WNW 12.7 mph - N/A   Partly Cloudy
2:30 PM 57.2 °F - 42.8 °F 59% 29.71 in 6.2 mi NNE 17.3 mph - N/A   Partly Cloudy
3:00 PM 57 °F - 37 °F 35% 29.72 in 14 mi ESE 19.6 mph - -  
3:00 PM 55.4 °F - 35.6 °F 47% 29.71 in 6.2 mi ESE 17.3 mph - N/A   Partly Cloudy
3:30 PM 55.4 °F - 42.8 °F 63% 29.71 in 6.2 mi SSE 10.4 mph - N/A   Partly Cloudy
4:00 PM 56 °F - 42 °F 50% 29.73 in 25 mi SSW 9.2 mph - -   Scattered Clouds
4:00 PM 53.6 °F - 42.8 °F 67% 29.71 in 6.2 mi South 10.4 mph - N/A   Partly Cloudy
4:23 PM 55.4 °F - 32.0 °F 41% 29.71 in 6.2 mi ENE 13.8 mph - N/A   Partly Cloudy
4:30 PM 55.4 °F - 39.2 °F 54% 29.71 in 6.2 mi ENE 13.8 mph - N/A   Partly Cloudy
5:00 PM 53.6 °F - 35.6 °F 51% 29.71 in 6.2 mi ENE 17.3 mph - N/A   Partly Cloudy
5:30 PM 53.6 °F - 30.2 °F 41% 29.74 in 6.2 mi ENE 15.0 mph - N/A   Partly Cloudy
6:00 PM 53 °F - 30 °F 29% 29.75 in 19 mi East 17.3 mph - -  
6:00 PM 51.8 °F - 30.2 °F 44% 29.74 in 6.2 mi ENE 15.0 mph - N/A   Partly Cloudy
6:30 PM 51.8 °F - 30.2 °F 44% 29.74 in 6.2 mi ENE 17.3 mph - N/A   Partly Cloudy
7:00 PM 51 °F - 30 °F 32% 29.76 in 19 mi East 15.0 mph - -   Scattered Clouds
7:00 PM 50.0 °F - 30.2 °F 47% 29.74 in 6.2 mi ENE 15.0 mph - N/A   Partly Cloudy
7:30 PM 50.0 °F - 30.2 °F 47% 29.74 in - ENE 16.1 mph - N/A   Clear
8:00 PM 50 °F - 31 °F 36% 29.77 in 19 mi East 13.8 mph - -  
8:00 PM 50.0 °F - 30.2 °F 47% 29.74 in - East 15.0 mph - N/A   Clear
8:30 PM 48.2 °F - 30.2 °F 50% 29.77 in - ENE 15.0 mph - N/A   Clear
9:00 PM 48 °F - 31 °F 40% 29.78 in 19 mi East 15.0 mph - -  
9:00 PM 46.4 °F 40.4 °F 30.2 °F 53% 29.77 in - ENE 13.8 mph - N/A   Clear
9:30 PM 46.4 °F 41.1 °F 32.0 °F 57% 29.77 in - East 11.5 mph - N/A   Clear
10:00 PM 47 °F - 32 °F 45% 29.78 in 19 mi East 10.4 mph - -   Clear
10:00 PM 46.4 °F 41.5 °F 32.0 °F 57% 29.77 in - East 10.4 mph - N/A   Clear
10:30 PM 44.6 °F 40.7 °F 32.0 °F 61% 29.77 in - East 6.9 mph - N/A   Clear
11:00 PM 44 °F - 32 °F 50% 29.78 in 19 mi NNE 6.9 mph - -  
11:00 PM 42.8 °F 40.1 °F 32.0 °F 66% 29.77 in 6.2 mi North 4.6 mph - N/A   Partly Cloudy
11:30 PM 41.0 °F 36.4 °F 32.0 °F 70% 29.77 in 6.2 mi NW 6.9 mph - N/A   Partly Cloudy